Weather History for KHXD - October, 2011

Change the Weather History Date:

Monday, October 10, 2011

  Actual Average Record
Temperature  
Mean Temperature 72 °F -  
Max Temperature 75 °F 78 °F 89 °F (2010)
Min Temperature 69 °F 61 °F 46 °F (1978)
Cooling Degree Days 7    
Growing Degree Days 22 (Base 50)    
Moisture  
Dew Point 71 °F    
Average Humidity 94    
Maximum Humidity 100    
Minimum Humidity 83    
Precipitation  
Precipitation 0.15 in - - ()
Sea Level Pressure  
Sea Level Pressure 29.95 in    
Wind  
Wind Speed 14 mph (NE)    
Max Wind Speed 20 mph    
Max Gust Speed 31 mph    
Visibility 4 miles    
Events Rain    
Averages and records for this station are not official NWS values.
T = Trace of Precipitation, MM = Missing Value Source: NWS Daily Summary

Daily Weather History Graph

Daily Weather History Graph

Search for Another Location

Airport or City:

Trip Planner

Search our weather history database for the weather conditions in past years. The results will help you decide how hot, cold, wet, or windy it might be!

Date:

Astronomy

Oct. 10, 2011 Rise Set
Actual Time 7:22 AM EDT 6:56 PM EDT
Civil Twilight 6:58 AM EDT 7:21 PM EDT
Nautical Twilight 6:29 AM EDT 7:49 PM EDT
Astronomical Twilight 6:01 AM EDT 8:17 PM EDT
Moon 5:59 PM EDT (10/10) 6:04 AM EDT (10/10)
Length of Visible Light 12h 22m
Length of Day
11h 33m
Waxing Gibbous, 98% of the Moon is Illuminated
Oct 10
Waxing Gibbous
Oct 11
Full
Oct 19
Last Quarter
Oct 26
New
Nov 2
First Quarter

Hourly Weather History & Observations

Time (EDT) Temp. Dew Point Humidity Pressure Visibility Wind Dir Wind Speed Gust Speed Precip Events Conditions
12:15 AM 71.6 °F 71.6 °F 100% 30.06 in 4.0 mi ENE 13.8 mph 21.9 mph 0.00 in   Overcast
12:35 AM 71.6 °F 71.6 °F 100% 30.05 in 4.0 mi NE 12.7 mph 20.7 mph 0.00 in   Light Drizzle
12:55 AM 71.6 °F 71.6 °F 100% 30.04 in 3.0 mi ENE 11.5 mph 31.1 mph 0.02 in   Light Drizzle
1:15 AM 71.6 °F 69.8 °F 94% 30.04 in 5.0 mi NE 13.8 mph 21.9 mph 0.00 in   Light Drizzle
1:35 AM 73.4 °F 71.6 °F 94% 30.03 in 5.0 mi NE 11.5 mph 23.0 mph 0.00 in   Scattered Clouds
1:55 AM 73.4 °F 69.8 °F 88% 30.02 in 5.0 mi NNE 11.5 mph 20.7 mph 0.01 in Rain Heavy Rain
2:15 AM 71.6 °F 69.8 °F 94% 30.02 in 6.0 mi NE 12.7 mph 26.5 mph 0.00 in   Overcast
2:35 AM 73.4 °F 69.8 °F 88% 30.01 in 7.0 mi NE 15.0 mph 21.9 mph 0.00 in   Mostly Cloudy
2:55 AM 73.4 °F 69.8 °F 88% 30.01 in 6.0 mi NE 16.1 mph 24.2 mph 0.00 in   Mostly Cloudy
3:15 AM 73.4 °F 69.8 °F 88% 30.00 in 5.0 mi NE 18.4 mph 24.2 mph 0.00 in   Mostly Cloudy
3:35 AM 73.4 °F 71.6 °F 94% 29.98 in 5.0 mi NNE 16.1 mph 23.0 mph 0.00 in   Overcast
3:55 AM 71.6 °F 71.6 °F 100% 29.98 in 2.5 mi NNE 11.5 mph - 0.02 in   Drizzle
4:35 AM 71.6 °F 71.6 °F 100% 29.97 in 4.0 mi NNE 13.8 mph 20.7 mph 0.02 in   Overcast
4:55 AM 73.4 °F 71.6 °F 94% 29.96 in 4.0 mi NE 16.1 mph 24.2 mph 0.02 in Rain Rain
5:15 AM 73.4 °F 71.6 °F 94% 29.96 in 4.0 mi NE 13.8 mph 25.3 mph 0.00 in   Drizzle
5:35 AM 73.4 °F 71.6 °F 94% 29.96 in 4.0 mi NE 13.8 mph 27.6 mph 0.00 in   Overcast
6:15 AM 71.6 °F 69.8 °F 94% 29.96 in 7.0 mi NE 17.3 mph 25.3 mph 0.00 in   Overcast
6:35 AM 73.4 °F 69.8 °F 88% 29.96 in 7.0 mi NE 19.6 mph 29.9 mph 0.00 in   Mostly Cloudy
7:50 AM 71.6 °F 71.6 °F 100% 29.95 in 3.0 mi NNE 13.8 mph 20.7 mph N/A Rain Light Rain
9:55 AM 73.4 °F 73.4 °F 100% 29.98 in 2.0 mi NNE 16.1 mph 27.6 mph N/A Rain Rain
10:50 AM 71.6 °F 71.6 °F 100% 29.98 in 2.0 mi ENE 15.0 mph 29.9 mph N/A Rain Rain
12:50 PM 71.6 °F 71.6 °F 100% 29.97 in 1.5 mi ENE 16.1 mph 28.8 mph N/A Rain Rain
2:50 PM 73.4 °F 69.8 °F 88% 29.91 in 4.0 mi ENE 17.3 mph 25.3 mph N/A   Mostly Cloudy
3:50 PM 75.2 °F 71.6 °F 89% 29.90 in 4.0 mi ENE 13.8 mph 25.3 mph N/A   Mostly Cloudy
4:50 PM 73.4 °F 69.8 °F 88% 29.89 in 4.0 mi ENE 17.3 mph 28.8 mph N/A   Mostly Cloudy
5:50 PM 73.4 °F 69.8 °F 88% 29.89 in 5.0 mi NE 17.3 mph 31.1 mph N/A   Mostly Cloudy
6:50 PM 71.6 °F 66.2 °F 83% 29.88 in 6.0 mi NE 18.4 mph 19.6 mph N/A   Overcast
7:50 PM 69.8 °F 69.8 °F 100% 29.87 in 2.0 mi NE 17.3 mph 26.5 mph N/A Rain Rain
8:30 PM 69.8 °F 69.8 °F 100% 29.87 in 4.0 mi NE 19.6 mph 28.8 mph N/A   Light Drizzle
9:15 PM 73.4 °F 71.6 °F 94% 29.87 in 3.0 mi NE 18.4 mph 26.5 mph 0.00 in   Overcast
9:35 PM 73.4 °F 71.6 °F 94% 29.87 in 1.2 mi NE 13.8 mph 24.2 mph 0.01 in   Light Drizzle
9:55 PM 73.4 °F 71.6 °F 94% 29.88 in 3.0 mi NE 15.0 mph 28.8 mph 0.01 in   Light Drizzle
10:15 PM 73.4 °F 71.6 °F 94% 29.88 in 4.0 mi ENE 15.0 mph 28.8 mph 0.00 in   Drizzle
10:35 PM 73.4 °F 71.6 °F 94% 29.89 in 2.0 mi ENE 13.8 mph 27.6 mph 0.01 in   Light Drizzle
10:55 PM 73.4 °F 71.6 °F 94% 29.89 in 2.5 mi ENE 15.0 mph 23.0 mph 0.01 in   Drizzle
11:35 PM 71.6 °F 71.6 °F 100% 29.89 in 2.5 mi NE 12.7 mph 23.0 mph 0.06 in   Overcast
11:55 PM 71.6 °F 71.6 °F 100% 29.88 in 4.0 mi ENE 11.5 mph 20.7 mph 0.06 in   Heavy Drizzle